Salem, IL

7:51 PM CDT on July 25, 2017 (GMT -0500)
Salem-Leckrone

Weather History for KSLO - February, 2014

Change the Weather History Date:

Friday, February 28, 2014

  Actual Average Record
Temperature  
Mean Temperature 30 °F -  
Max Temperature 44 °F 50 °F 73 °F (1972)
Min Temperature 16 °F 29 °F 5 °F (1993)
Degree Days  
Heating Degree Days 35    
Moisture  
Dew Point 14 °F    
Average Humidity 52    
Maximum Humidity 73    
Minimum Humidity 34    
Precipitation  
Precipitation 0.00 in - - ()
Sea Level Pressure  
Sea Level Pressure 30.08 in    
Wind  
Wind Speed 7 mph (ESE)    
Max Wind Speed 14 mph    
Max Gust Speed 20 mph    
Visibility 10 miles    
Events      
Averages and records for this station are not official NWS values.
T = Trace of Precipitation, MM = Missing Value Source: NWS Daily Summary

Daily Weather History Graph

Daily Weather History Graph

Search for Another Location

Airport or City:

Trip Planner

Search our weather history database for the weather conditions in past years. The results will help you decide how hot, cold, wet, or windy it might be!

Date:

Astronomy

Feb. 28, 2014 Rise Set
Actual Time 6:29 AM CST 5:47 PM CST
Civil Twilight 6:02 AM CST 6:14 PM CST
Nautical Twilight 5:32 AM CST 6:45 PM CST
Astronomical Twilight 5:01 AM CST 7:16 PM CST
Moon 5:43 AM CST (2/28) 5:24 PM CST (2/28)
Length of Visible Light 12h 11m
Length of Day
11h 18m
Waning Crescent, 1% of the Moon is Illuminated
Feb 28
Waning Crescent
Mar 1
New
Mar 8
First Quarter
Mar 16
Full
Mar 23
Last Quarter

Hourly Weather History & Observations

Time (CST) Temp. Windchill Dew Point Humidity Pressure Visibility Wind Dir Wind Speed Gust Speed Precip Events Conditions
12:15 AM 17.8 °F 10.9 °F 9.3 °F 69% 30.15 in 10.0 mi East 4.6 mph - N/A   Clear
12:40 AM 17.4 °F 9.1 °F 8.4 °F 68% 30.15 in 10.0 mi East 5.8 mph - N/A   Clear
12:55 AM 17.2 °F 8.9 °F 8.4 °F 68% 30.15 in 10.0 mi East 5.8 mph - N/A   Clear
1:15 AM 17.1 °F 8.7 °F 7.9 °F 67% 30.15 in 10.0 mi East 5.8 mph - N/A   Clear
1:35 AM 16.7 °F 8.3 °F 8.1 °F 69% 30.14 in 10.0 mi East 5.8 mph - N/A   Clear
1:55 AM 16.7 °F 8.3 °F 8.4 °F 70% 30.14 in 10.0 mi East 5.8 mph - N/A   Clear
2:15 AM 16.5 °F 8.1 °F 8.4 °F 70% 30.14 in 10.0 mi East 5.8 mph - N/A   Clear
2:35 AM 16.7 °F 7.2 °F 8.6 °F 70% 30.13 in 10.0 mi East 6.9 mph - N/A   Clear
2:55 AM 17.1 °F 7.6 °F 8.6 °F 69% 30.13 in 10.0 mi East 6.9 mph - N/A   Clear
3:15 AM 17.2 °F 8.9 °F 8.4 °F 68% 30.13 in 10.0 mi East 5.8 mph - N/A   Clear
3:35 AM 17.2 °F 6.0 °F 8.4 °F 68% 30.13 in 10.0 mi East 9.2 mph - N/A   Clear
3:55 AM 17.4 °F 6.2 °F 8.4 °F 68% 30.13 in 10.0 mi East 9.2 mph - N/A   Clear
4:15 AM 17.4 °F 10.4 °F 8.6 °F 68% 30.13 in 10.0 mi East 4.6 mph - N/A   Clear
4:35 AM 17.4 °F 9.1 °F 8.4 °F 68% 30.13 in 10.0 mi East 5.8 mph - N/A   Clear
4:55 AM 17.2 °F 6.8 °F 8.6 °F 69% 30.13 in 10.0 mi East 8.1 mph - N/A   Clear
5:15 AM 17.2 °F 8.9 °F 8.6 °F 69% 30.13 in 10.0 mi East 5.8 mph - N/A   Clear
5:35 AM 17.1 °F 8.7 °F 8.8 °F 70% 30.13 in 10.0 mi East 5.8 mph - N/A   Clear
5:55 AM 17.1 °F 7.6 °F 9.0 °F 71% 30.13 in 10.0 mi East 6.9 mph - N/A   Clear
6:15 AM 17.1 °F 7.6 °F 8.8 °F 70% 30.13 in 10.0 mi East 6.9 mph - N/A   Clear
6:35 AM 17.1 °F 8.7 °F 9.1 °F 71% 30.13 in 10.0 mi ESE 5.8 mph - N/A   Clear
6:55 AM 17.1 °F 10.0 °F 9.5 °F 72% 30.14 in 10.0 mi ESE 4.6 mph - N/A   Clear
7:15 AM 17.4 °F 12.1 °F 10.0 °F 73% 30.15 in 10.0 mi ESE 3.5 mph - N/A   Clear
7:35 AM 18.3 °F 11.5 °F 10.6 °F 72% 30.16 in 10.0 mi ESE 4.6 mph - N/A   Clear
7:55 AM 19.8 °F 10.8 °F 10.9 °F 69% 30.15 in 10.0 mi ESE 6.9 mph - N/A   Clear
8:15 AM 21.2 °F 9.5 °F 11.3 °F 66% 30.14 in 10.0 mi ESE 11.5 mph 16.1 mph N/A   Clear
8:35 AM 22.5 °F 11.7 °F 11.3 °F 62% 30.14 in 10.0 mi ESE 10.4 mph - N/A   Clear
8:55 AM 23.7 °F 14.0 °F 11.1 °F 59% 30.13 in 10.0 mi ESE 9.2 mph 19.6 mph N/A   Clear
9:15 AM 25.9 °F 14.8 °F 11.3 °F 54% 30.13 in 10.0 mi ESE 12.7 mph 16.1 mph N/A   Clear
9:35 AM 27.5 °F 18.6 °F 10.8 °F 49% 30.13 in 10.0 mi ESE 9.2 mph 17.3 mph N/A   Clear
9:55 AM 29.3 °F 20.8 °F 11.1 °F 47% 30.13 in 10.0 mi ESE 9.2 mph - N/A   Clear
10:15 AM 30.7 °F 22.6 °F 11.1 °F 44% 30.13 in 10.0 mi ESE 9.2 mph - N/A   Clear
10:35 AM 32.0 °F 24.2 °F 11.7 °F 43% 30.13 in 10.0 mi SSE 9.2 mph - N/A   Clear
10:55 AM 32.7 °F 24.5 °F 11.8 °F 42% 30.13 in 10.0 mi SSE 10.4 mph - N/A   Clear
11:15 AM 34.9 °F 27.1 °F 13.3 °F 41% 30.12 in 10.0 mi SSE 10.4 mph - N/A   Clear
11:35 AM 34.9 °F 26.6 °F 13.8 °F 42% 30.11 in 10.0 mi ESE 11.5 mph - N/A   Clear
11:55 AM 36.0 °F 28.5 °F 14.7 °F 42% 30.10 in 10.0 mi SSE 10.4 mph 17.3 mph N/A   Clear
12:15 PM 37.8 °F 31.8 °F 15.6 °F 41% 30.09 in 10.0 mi SE 8.1 mph 17.3 mph N/A   Clear
12:35 PM 38.1 °F 31.7 °F 16.0 °F 41% 30.08 in 10.0 mi SSE 9.2 mph - N/A   Clear
12:55 PM 39.4 °F 32.7 °F 16.2 °F 39% 30.06 in 10.0 mi SSE 10.4 mph 17.3 mph N/A   Clear
1:15 PM 39.6 °F 32.5 °F 16.2 °F 39% 30.05 in 10.0 mi SSE 11.5 mph 17.3 mph N/A   Clear
1:35 PM 40.5 °F 35.1 °F 16.2 °F 37% 30.05 in 10.0 mi ESE 8.1 mph - N/A   Clear
1:55 PM 41.7 °F 35.2 °F 16.5 °F 36% 30.04 in 10.0 mi SE 11.5 mph 18.4 mph N/A   Clear
2:20 PM 42.6 °F 36.8 °F 16.9 °F 35% 30.03 in 10.0 mi SE 10.4 mph 18.4 mph N/A   Clear
2:35 PM 43.0 °F 38.2 °F 17.4 °F 36% 30.02 in 10.0 mi SSE 8.1 mph - N/A   Clear
2:55 PM 43.2 °F 36.2 °F 17.1 °F 35% 30.01 in 10.0 mi SE 13.8 mph - N/A   Clear
3:15 PM 43.7 °F 38.1 °F 16.9 °F 34% 30.01 in 10.0 mi SSE 10.4 mph 18.4 mph N/A   Clear
3:35 PM 44.1 °F 39.5 °F 17.2 °F 34% 30.00 in 10.0 mi SSE 8.1 mph - N/A   Clear
3:55 PM 44.1 °F 39.0 °F 17.4 °F 34% 29.99 in 10.0 mi SE 9.2 mph - N/A   Clear
4:15 PM 43.9 °F 38.3 °F 17.1 °F 34% 29.98 in 10.0 mi SE 10.4 mph - N/A   Clear
4:35 PM 43.0 °F 36.8 °F 17.2 °F 36% 29.98 in 10.0 mi SE 11.5 mph - N/A   Clear
4:55 PM 42.3 °F 36.8 °F 18.0 °F 38% 29.98 in 10.0 mi SE 9.2 mph - N/A   Clear
5:15 PM 41.5 °F 35.9 °F 17.6 °F 38% 29.98 in 10.0 mi SE 9.2 mph - N/A   Clear
5:35 PM 40.5 °F 36.5 °F 17.8 °F 40% 29.99 in 10.0 mi SE 5.8 mph - N/A   Clear
5:50 PM 39.9 °F 36.7 °F 17.8 °F 41% 29.99 in 10.0 mi ESE 4.6 mph - N/A   Clear
6:15 PM 38.8 °F 35.4 °F 17.8 °F 43% 30.00 in 10.0 mi SE 4.6 mph - N/A   Clear
6:35 PM 38.5 °F - 17.2 °F 42% 30.02 in 10.0 mi Calm Calm - N/A   Clear
6:55 PM 37.8 °F - 17.2 °F 43% 30.03 in 10.0 mi Calm Calm - N/A   Clear
7:15 PM 37.0 °F - 17.4 °F 45% 30.04 in 10.0 mi Calm Calm - N/A   Clear
7:35 PM 36.7 °F - 17.8 °F 46% 30.04 in 10.0 mi Calm Calm - N/A   Clear
7:55 PM 37.4 °F 34.9 °F 18.0 °F 45% 30.03 in 10.0 mi ESE 3.5 mph - N/A   Clear
8:15 PM 37.4 °F 33.8 °F 18.1 °F 46% 30.03 in 10.0 mi ESE 4.6 mph - N/A   Clear
8:35 PM 37.6 °F 35.1 °F 18.1 °F 45% 30.04 in 10.0 mi ESE 3.5 mph - N/A   Scattered Clouds
8:55 PM 37.2 °F 33.6 °F 18.1 °F 46% 30.04 in 10.0 mi SE 4.6 mph - N/A   Clear
9:15 PM 37.4 °F 33.8 °F 18.9 °F 47% 30.04 in 10.0 mi SE 4.6 mph - N/A   Mostly Cloudy
9:35 PM 37.4 °F 33.8 °F 19.4 °F 48% 30.04 in 10.0 mi SE 4.6 mph - N/A   Overcast
9:55 PM 38.3 °F 33.2 °F 18.5 °F 45% 30.05 in 10.0 mi SSE 6.9 mph - N/A   Overcast
10:15 PM 38.8 °F 35.4 °F 17.8 °F 43% 30.04 in 10.0 mi SSE 4.6 mph - N/A   Overcast
10:35 PM 38.7 °F 35.2 °F 18.1 °F 44% 30.04 in 10.0 mi SSE 4.6 mph - N/A   Overcast
10:55 PM 38.1 °F 34.6 °F 18.3 °F 45% 30.04 in 10.0 mi SSE 4.6 mph - N/A   Mostly Cloudy
11:15 PM 37.8 °F 34.2 °F 18.1 °F 45% 30.03 in 10.0 mi SE 4.6 mph - N/A   Scattered Clouds
11:35 PM 37.9 °F 34.4 °F 18.0 °F 45% 30.03 in 10.0 mi SSE 4.6 mph - N/A   Scattered Clouds
11:55 PM 38.5 °F 35.0 °F 18.1 °F 44% 30.03 in 10.0 mi SSE 4.6 mph - N/A   Scattered Clouds